Weather in Horodnia

Ukraine / Chernihiv Region     51°53′34″N   31°35′40″E
temp.,
°C
wind,
m/s
gust,
m/s
humid.,
%
clouds,
%
prec.,
mm/h
press.,
hPa
HPBL,
m
16 april, fri
fri1600:00+7nw008569 0.0 101110
03:00+7n228894 0.0 101111
06:00+7ese1194100 0.8 101018
09:00+9ese468663 1.6 1011604
12:00+8ese6989100 1.8 1012734
15:00+9ese478595 2.9 1013533
18:00+10ese477891 0.6 1013615
21:00+8ese368881 0.8 1013130
17 april, sat
sat1700:00+7se3593100 0.0 1014188
03:00+5se35955 0.1 101693
06:00+3sse249427 0.0 101787
09:00+6se3485100 0.0 1018475
12:00+9ese3465100 0.0 10191159
15:00+11se1255100 0.1 10181240
18:00+10wsw2262100 0.1 1018458
21:00+7sw4975100 0.1 1017330
18 april, sun
sun1800:00+6sw61189100 2.8 1015486
03:00+7wsw61096100 8.9 1012618
06:00+6nw3593100 2.2 1011320
09:00+5ene5796100 2.5 1011333
12:00+4ne71096100 2.2 1013537
15:00+4ne81096100 4.2 1014562
18:00+5nne6893100 0.5 1015786
21:00+5n4795100 0.8 1016626
19 april, mon
mon1900:00+5nnw4893100 0.1 1015394
03:00+5wnw3695100 0.4 1015242
06:00+5w3597100 0.3 1014297
09:00+5sw3497100 0.9 1015293
12:00+7s358478 0.3 1015713
15:00+10s346680 0.7 10141212
18:00+10sse246837 0.1 1014479
21:00+6ne118086 0.1 101310
20 april, tue
tue2000:00+7e389792 0.1 1011221
03:00+7ne369591 0.2 1008182
06:00+7nne5995100 0.0 1004387
09:00+7n61097100 0.1 1000490
12:00+8n61096100 3.8 996609
15:00+7nnw61096100 8.4 993601
18:00+7wnw71095100 4.8 993776
21:00+5w61196100 7.2 996905